Location: Antist
(43.1184°N, 0.1270°E)
Time: 11:20:58
(UTC+00:00)

Cosmos 1048 Rocket - Pass Details

Date: 19 January 2020
Orbit: 744 x 791 km, 74.0° (Epoch: 20 February)

Event Time Altitude Azimuth Distance (km) Brightness Sun altitude
Rises 17:58:45 0° 338° (NNW) 3,208 7.3 -11.7°
Reaches altitude 10° 18:01:07 10° 338° (NNW) 2,275 6.5 -12.2°
Maximum altitude 18:06:16 83° 252° (WSW) 756 4.0 -13.1°
Drops below altitude 10° 18:11:22 10° 165° (SSE) 2,251 6.4 -14.0°
Sets 18:13:43 0° 164° (SSE) 3,171 7.2 -14.4°
